User: anonymous
Location: Vancouver
(49.2500°N, 123.1330°W)
Time: 07:27:19
(UTC-07:00)
Language:

JAS-1B - Orbit

View from above orbital plane
View from above orbital plane
View from above satellite
View from above satellite

Ground track
Ground track

The orbit data is extracted from the following two-line orbital elements,

1 20480U 90013C   14112.86431351 -.00000014  00000-0  32330-4 0  7109
2 20480 099.0387 086.4109 0541049 119.1169 357.2170 12.83393155134037
Epoch (UTC): 22 April 2014 20:44:36
Eccentricity: 0.0541049
inclination: 99.0387°
perigee height: 911 km
apogee height: 1745 km
right ascension of ascending node: 86.4109°
argument of perigee: 119.1169°
revolutions per day: 12.83393155
mean anomaly at epoch: 357.2170°
orbit number at epoch: 13403

The dashed part of the orbit path shows where the satellite is in the earth's shadow,  

DLR